This is the latest recevied weather packets stored in our database for station/object N3AVN. If no packets are shown the sender has not sent any weather packets the latest 10 day(s).
| Time | Temp. | Humidity | Pressure | Rain* | Wind** | Luminosity | Snow |
|---|---|---|---|---|---|---|---|
| 1777513812 | 12.78° C | 75% | 1009.5 hPa | 0 mm | - | 0 W/m² | - |
| 1777513509 | 12.22° C | 75% | 1009.6 hPa | 0 mm | - | 0 W/m² | - |
| 1777513206 | 12.22° C | 77% | 1009.3 hPa | 0 mm | - | 0 W/m² | - |
| 1777512901 | 12.22° C | 77% | 1009.2 hPa | 0 mm | - | 0 W/m² | - |
| 1777512599 | 12.22° C | 77% | 1009 hPa | 0 mm | - | 0 W/m² | - |
| 1777512295 | 12.22° C | 76% | 1009.1 hPa | 0 mm | - | 0 W/m² | - |
| 1777511992 | 12.22° C | 75% | 1009 hPa | 0 mm | - | 0 W/m² | - |
| 1777511691 | 12.22° C | 76% | 1009.3 hPa | 0 mm | - | 0 W/m² | - |
| 1777511388 | 12.22° C | 76% | 1009.1 hPa | 0 mm | - | 0 W/m² | - |
| 1777511084 | 12.22° C | 75% | 1009.1 hPa | 0 mm | - | 0 W/m² | - |
| 1777510779 | 12.22° C | 74% | 1009 hPa | 0 mm | - | 0 W/m² | - |
| 1777510477 | 12.78° C | 73% | 1009 hPa | 0 mm | - | 0 W/m² | - |
| 1777510172 | 12.78° C | 72% | 1009.1 hPa | 0 mm | - | 0 W/m² | - |
| 1777509870 | 13.33° C | 71% | 1009.2 hPa | 0 mm | - | 0 W/m² | - |
| 1777509565 | 13.33° C | 71% | 1009.1 hPa | 0 mm | - | 0 W/m² | - |
| 1777509262 | 13.33° C | 70% | 1008.9 hPa | 0 mm | - | 0 W/m² | - |
| 1777508959 | 13.33° C | 70% | 1008.9 hPa | 0 mm | - | 0 W/m² | - |
| 1777508656 | 13.33° C | 69% | 1009 hPa | 0 mm | - | 0 W/m² | - |
| 1777508354 | 13.33° C | 68% | 1009 hPa | 0 mm | - | 0 W/m² | - |
| 1777508051 | 13.89° C | 67% | 1009 hPa | 0 mm | - | 0 W/m² | - |
| 1777507747 | 13.89° C | 67% | 1009.3 hPa | 0 mm | - | 0 W/m² | - |
| 1777507444 | 13.89° C | 67% | 1009 hPa | 0 mm | - | 0 W/m² | - |
| 1777507141 | 13.89° C | 67% | 1009.1 hPa | 0 mm | - | 0 W/m² | - |
| 1777506839 | 14.44° C | 65% | 1008.9 hPa | 0 mm | - | 0 W/m² | - |
| 1777506530 | 14.44° C | 64% | 1008.9 hPa | 0 mm | - | 0 W/m² | - |
* Rain latest hour (hover to see other rain measurements)
** Current wind speed in m/s (hover to see current wind gust speed)